Franklin, PA

7:49 PM EST on November 21, 2019 (GMT -0500)
Venango Regional

Weather History for KFKL - September, 2019

Change the Weather History Date:

Friday, September 6, 2019

  Actual Average Record
Temperature  
Mean Temperature 62 °F -  
Max Temperature 73 °F 76 °F 92 °F (1929)
Min Temperature 51 °F 53 °F 36 °F (1962)
Degree Days  
Heating Degree Days 3    
Growing Degree Days 12 (Base 50)    
Moisture  
Dew Point 54 °F    
Average Humidity 90    
Maximum Humidity 100    
Minimum Humidity 57    
Precipitation  
Precipitation 0.00 in - - ()
Sea Level Pressure  
Sea Level Pressure 29.97 in    
Wind  
Wind Speed 4 mph (ENE)    
Max Wind Speed 8 mph    
Max Gust Speed -    
Visibility 5 miles    
Events Fog , Rain    
Averages and records for this station are not official NWS values.
T = Trace of Precipitation, MM = Missing Value Source: NWS Daily Summary

Daily Weather History Graph

Daily Weather History Graph

Search for Another Location

Airport or City:

Astronomy

Sep. 06, 2019 Rise Set
Actual Time 6:50 AM EDT 7:44 PM EDT
Civil Twilight 6:22 AM EDT 8:12 PM EDT
Nautical Twilight 5:48 AM EDT 8:45 PM EDT
Astronomical Twilight 5:14 AM EDT 9:20 PM EDT
Moon 3:02 PM EDT (9/6) No Moon Set
Length of Visible Light 13h 50m
Length of Day
12h 53m
First Quarter, 55% of the Moon is Illuminated
Sep 6
First Quarter
Sep 14
Full
Sep 21
Last Quarter
Sep 28
New
Oct 5
First Quarter

Hourly Weather History & Observations

Time (EDT) Temp. Dew Point Humidity Pressure Visibility Wind Dir Wind Speed Gust Speed Precip Events Conditions
12:56 AM 53.1 °F 52.0 °F 96% 30.04 in 10.0 mi NNE 5.8 mph - N/A   Clear
1:56 AM 53.1 °F 51.1 °F 93% 30.03 in 10.0 mi ENE 4.6 mph - N/A   Clear
2:40 AM 51.8 °F 51.8 °F 100% 30.02 in 1.5 mi NE 3.5 mph - N/A   Partly Cloudy
2:50 AM 51.8 °F 51.8 °F 100% 30.02 in 1.2 mi ENE 3.5 mph - N/A   Partly Cloudy
2:53 AM 51.8 °F 51.8 °F 100% 30.02 in 4.0 mi ENE 3.5 mph - N/A   Partly Cloudy
2:56 AM 52.0 °F 51.1 °F 97% 30.01 in 3.0 mi NE 3.5 mph - N/A   Partly Cloudy
2:58 AM 51.8 °F 51.8 °F 100% 30.01 in 1.5 mi NNE 4.6 mph - N/A   Partly Cloudy
3:08 AM 51.8 °F 51.8 °F 100% 30.01 in 0.5 mi NNE 4.6 mph - N/A Fog Fog
3:10 AM 51.8 °F 51.8 °F 100% 30.02 in 1.0 mi NNE 4.6 mph - N/A   Mist
3:14 AM 51.8 °F 51.8 °F 100% 30.01 in 2.0 mi NNE 3.5 mph - N/A   Scattered Clouds
3:16 AM 51.8 °F 50.0 °F 94% 30.01 in 1.8 mi NE 3.5 mph - N/A   Mostly Cloudy
3:24 AM 51.8 °F 50.0 °F 94% 30.01 in 0.8 mi ENE 3.5 mph - N/A   Mostly Cloudy
3:29 AM 51.8 °F 51.8 °F 100% 30.01 in 0.2 mi ENE 4.6 mph - N/A Fog Fog
3:49 AM 51.8 °F 51.8 °F 100% 30.00 in 0.5 mi East 3.5 mph - N/A Fog Fog
3:56 AM 52.0 °F 51.1 °F 97% 29.99 in 0.2 mi East 4.6 mph - N/A Fog Fog
4:56 AM 52.0 °F 51.1 °F 97% 29.99 in 0.5 mi ENE 3.5 mph - N/A Fog Fog
5:08 AM 51.8 °F 51.8 °F 100% 30.00 in 0.2 mi NE 3.5 mph - N/A Fog Fog
5:56 AM 52.0 °F 52.0 °F 100% 29.99 in 0.2 mi ENE 3.5 mph - N/A Fog Fog
6:30 AM 51.8 °F 51.8 °F 100% 30.00 in 0.5 mi ENE 3.5 mph - N/A Fog Fog
6:40 AM 51.8 °F 51.8 °F 100% 30.00 in 0.2 mi Calm Calm - N/A Fog Fog
6:56 AM 51.1 °F 51.1 °F 100% 29.99 in 0.2 mi NE 4.6 mph - N/A Fog Fog
7:56 AM 52.0 °F 52.0 °F 100% 29.99 in 0.2 mi ENE 4.6 mph - N/A Fog Fog
8:06 AM 53.6 °F 53.6 °F 100% 29.99 in 0.8 mi ENE 3.5 mph - N/A   Overcast
8:09 AM 53.6 °F 53.6 °F 100% 29.99 in 1.2 mi East 3.5 mph - N/A   Mostly Cloudy
8:12 AM 53.6 °F 53.6 °F 100% 29.99 in 3.0 mi East 3.5 mph - N/A   Mostly Cloudy
8:24 AM 53.6 °F 53.6 °F 100% 29.98 in 10.0 mi East 4.6 mph - N/A   Scattered Clouds
8:56 AM 55.9 °F 54.0 °F 93% 29.97 in 10.0 mi ESE 5.8 mph - N/A   Clear
9:56 AM 63.0 °F 55.9 °F 78% 29.95 in 10.0 mi ESE 6.9 mph - N/A   Clear
10:56 AM 66.9 °F 55.9 °F 68% 29.93 in 10.0 mi SE 5.8 mph - N/A   Clear
11:56 AM 69.1 °F 57.0 °F 65% 29.91 in 10.0 mi South 3.5 mph - N/A   Partly Cloudy
12:56 PM 71.1 °F 55.9 °F 59% 29.90 in 10.0 mi Variable 3.5 mph - N/A   Mostly Cloudy
1:56 PM 72.0 °F 55.9 °F 57% 29.89 in 10.0 mi Calm Calm - N/A   Mostly Cloudy
2:56 PM 73.0 °F 57.0 °F 57% 29.88 in 10.0 mi West 8.1 mph - N/A   Mostly Cloudy
3:56 PM 72.0 °F 57.0 °F 59% 29.86 in 10.0 mi Variable 3.5 mph - N/A   Overcast
4:56 PM 70.0 °F 57.0 °F 63% 29.86 in 10.0 mi NW 5.8 mph - 0.00 in Rain Light Rain
5:56 PM 66.9 °F 60.1 °F 79% 29.87 in 10.0 mi Variable 5.8 mph - 0.00 in   Mostly Cloudy
6:56 PM 66.9 °F 60.1 °F 79% - 10.0 mi Calm Calm - N/A   Mostly Cloudy
7:56 PM 64.0 °F 57.9 °F 80% 29.90 in 10.0 mi Variable 3.5 mph - N/A   Partly Cloudy
8:56 PM 61.0 °F 57.9 °F 90% 29.91 in 10.0 mi NNE 3.5 mph - N/A   Partly Cloudy
9:41 PM 60.8 °F 57.2 °F 88% 29.92 in 10.0 mi Calm Calm - N/A   Mostly Cloudy
9:56 PM 61.0 °F 57.0 °F 87% 29.91 in 10.0 mi Calm Calm - N/A   Overcast
10:18 PM 60.8 °F 57.2 °F 88% 29.92 in 10.0 mi Calm Calm - N/A   Scattered Clouds
10:56 PM 59.0 °F 55.9 °F 90% 29.91 in 10.0 mi Calm Calm - N/A   Clear
11:56 PM 57.0 °F 55.9 °F 96% 29.90 in 10.0 mi Calm Calm - N/A   Partly Cloudy